{"data":{"norad_id":60196,"intl_designator":"2024-124P","name":"STARLINK-31869","alt_names":[],"object_type":"PAYLOAD","status":"ACTIVE","operator":null,"country":"US","launch_date":"2024-07-03","launch_site_code":"AFETR","launch_vehicle":null,"mission":null,"orbit_class":"UNKNOWN","rcs_meters":null,"size_class":null,"mass_kg":null,"dimensions":null,"purposes":["comms"],"wikipedia_slug":null,"has_3d_model":false,"image_url":null,"decayed_at":null,"tle_current":{"epoch":"2026-09-21T20:51:19.554048Z","epoch_age_seconds":63445,"freshness":"FRESH","line1":"1 60196U 24124P   26264.86897632  .00000692  00000+0  34079-4 0  9997","line2":"2 60196  53.1593 129.7018 0001245  91.7668 268.3476 15.31676541124357","mean_motion":15.31676541,"eccentricity":0.0001245,"inclination_deg":53.1593,"raan_deg":129.7018,"arg_perigee_deg":91.7668,"mean_anomaly_deg":268.3476,"bstar":3.4079e-5,"rev_number":12435,"period_min":94.014627857384,"perigee_km":469.95723228416,"apogee_km":471.66262006878,"semimajor_km":6848.9469261765,"source":"CELESTRAK","updated_at":"2026-09-22T09:00:49.184337Z"}}}